CAPE
33 0 0 1 0 0 0 0 0 0 0 0 0 0 0 0 0 0 0 0 0 1 1 0 0 0 1 1 1 0 1 3 7 35 34 9 30 37
31 31 12 0 0 0 0 0 0 0 0 0 0 0 0 0 0 0 0 0 0 2 5 2 0 0 0 0 0 0 0 3 12 22 34 9 14 15
17 25 28 0 0 0 0 0 0 0 0 0 0 0 0 0 0 0 0 0 0 0 2 8 2 0 0 0 0 0 0 1 8 16 20 8 3 175
0 1 0 0 0 0 0 0 0 0 0 0 0 0 0 0 0 0 0 0 0 0 0 2 0 0 0 0 0 0 0 0 3 12 12 4 108 256
0 0 0 0 0 0 1 1 0 0 0 0 0 0 0 0 0 0 0 0 0 0 0 0 0 0 0 0 0 0 0 0 0 9 6 2 0 220
0 0 0 0 0 0 0 0 0 0 0 0 0 0 0 0 0 0 0 0 0 0 0 0 0 0 0 0 0 0 0 0 0 5 7 0 0 10
0 0 0 0 0 0 0 0 0 0 0 0 0 0 0 0 0 0 0 0 0 0 0 0 0 0 0 0 0 0 0 0 0 4 6 3 0 0
0 0 0 0 0 0 0 0 0 0 0 0 0 0 0 0 0 0 0 0 0 0 0 0 0 0 0 0 0 0 0 0 0 2 3 3 1 6
0 0 0 0 0 0 0 0 0 0 0 0 0 0 0 0 0 0 0 0 0 0 0 0 0 0 0 0 0 0 0 0 0 1 1 3 1 0
0 0 0 0 0 0 0 0 0 0 0 0 0 0 0 0 0 0 0 0 0 0 0 0 0 0 0 0 0 0 0 0 0 0 0 1 1 0
0 0 0 0 0 0 0 0 0 0 0 0 0 0 0 0 0 0 0 0 0 0 0 0 0 0 0 0 0 0 0 0 0 0 0 0 0 1
0 0 0 0 1 0 0 0 0 0 0 0 0 0 0 0 0 0 0 0 0 0 0 0 0 0 0 0 0 0 0 0 1 0 0 0 0 0
0 0 0 0 1 0 0 0 0 0 0 0 0 0 0 0 0 0 0 0 0 0 0 0 0 0 0 0 0 0 0 0 0 0 0 0 0 0
0 0 0 0 0 0 0 0 0 0 0 0 0 0 0 0 0 0 0 0 0 0 0 0 0 0 0 0 0 0 0 0 0 0 0 0 0 0
0 0 0 0 0 0 0 0 0 0 0 0 0 0 0 0 0 1 0 0 0 0 1 0 0 0 0 0 0 0 0 0 0 0 0 0 0 0
0 0 0 0 0 0 0 0 0 0 0 0 0 0 0 1 1 0 0 0 0 0 1 0 0 0 0 0 0 0 0 0 0 0 0 0 0 0
0 0 0 0 0 0 0 0 0 0 0 0 0 0 1 2 0 1 1 0 0 0 0 0 1 0 0 0 0 0 0 0 0 0 0 0 0 0
0 0 0 0 0 0 0 0 0 0 0 0 0 0 0 0 0 0 1 1 0 1 1 0 0 0 0 0 0 0 0 0 0 0 0 0 0 0
0 0 0 0 0 0 0 0 0 0 0 0 0 0 0 0 0 0 0 0 0 0 0 0 0 0 0 0 0 0 0 0 0 0 0 0 0 0
0 0 0 0 0 0 0 0 0 0 0 0 0 0 0 0 1 0 0 0 0 1 0 0 0 0 0 0 0 0 0 0 0 0 0 0 0 0
0 0 0 0 0 0 0 0 0 0 0 0 0 0 0 0 0 0 0 0 1 0 1 0 0 0 0 0 0 0 0 0 0 0 0 0 0 0
0 0 0 0 0 0 0 0 0 0 0 0 0 0 0 0 0 0 0 0 0 0 0 0 0 1 0 0 0 0 0 0 0 0 0 0 0 0
0 0 0 0 0 0 0 0 0 0 0 0 0 0 0 0 0 0 0 0 0 0 0 0 0 0 0 0 0 0 0 0 0 0 0 0 0 0
CIN
-179 -5 0 -34 0 0 0 0 0 0 0 0 0 0 0 0 0 0 0 0 0 0 0 0 0 0 0 0 0 0 0 0 -1 0 0 0 0 0
-128 -126 -133 0 0 0 0 0 0 0 0 0 0 0 0 0 0 0 0 0 0 0 -1 -1 0 0 0 0 0 0 0 0 -3 -1 0 0 0 0
-110 -107 -85 0 0 0 0 0 0 0 0 0 0 0 0 0 0 0 0 0 0 0 -1 -1 -1 0 0 0 0 0 0 0 0 0 0 0 0 -40
-15 -2 0 0 0 0 0 0 0 0 0 0 0 0 0 0 0 0 0 0 0 0 0 -1 0 0 0 0 0 0 0 0 0 0 0 0 -69 -9
0 0 0 0 0 0 0 0 0 0 0 0 0 0 0 0 0 0 0 0 0 0 0 0 0 0 0 0 0 0 0 0 0 0 0 0 0 -5
0 0 0 0 0 0 0 0 0 0 0 0 0 0 0 0 0 0 0 0 0 0 0 0 0 0 0 0 0 0 0 0 0 0 0 0 0 -10
0 0 0 0 0 0 0 0 0 0 0 0 0 0 0 0 0 0 0 0 0 0 0 0 0 0 0 0 0 0 0 0 0 0 0 0 -3 -13
0 0 0 0 0 0 0 0 0 0 0 0 0 0 0 0 0 0 0 0 0 0 0 0 0 0 0 0 0 0 0 0 0 0 0 0 0 -78
0 0 0 0 0 0 0 0 0 0 0 0 0 0 0 0 0 0 0 0 0 0 0 0 0 0 0 0 0 0 0 0 0 0 0 0 0 0
0 0 0 0 0 0 0 0 0 0 0 0 0 0 0 0 0 0 0 0 0 0 0 0 0 0 0 0 0 0 0 0 0 0 0 0 0 0
0 0 0 0 0 0 0 0 0 0 0 0 0 0 0 0 0 0 0 0 0 0 0 0 0 0 0 0 0 0 0 0 0 0 0 0 0 0
0 0 0 0 0 0 0 0 0 0 0 0 0 0 0 0 0 0 0 0 0 0 0 0 0 0 0 0 0 0 0 0 0 0 0 0 0 0
0 0 0 0 0 0 0 0 0 0 0 0 0 0 0 0 0 0 0 0 0 0 0 0 0 0 0 0 0 0 0 0 0 0 0 0 0 0
0 0 0 0 0 0 0 0 0 0 0 0 0 0 0 0 0 0 0 0 0 0 0 0 0 0 0 0 0 0 0 0 0 0 0 0 0 0
0 0 0 0 0 0 0 0 0 0 0 0 0 0 0 0 0 0 0 0 0 0 0 0 0 0 0 0 0 0 0 0 0 0 0 0 0 0
0 0 0 0 0 0 0 0 0 0 0 0 0 0 0 0 0 0 0 0 0 0 0 0 0 0 0 0 0 0 0 0 0 0 0 0 0 0
0 0 0 0 0 0 0 0 0 0 0 0 0 0 0 0 0 0 0 0 0 0 0 0 0 0 0 0 0 0 0 0 0 0 0 0 0 0
0 0 0 0 0 0 0 0 0 0 0 0 0 0 0 0 0 0 0 0 0 0 0 0 0 0 0 0 0 0 0 0 0 0 0 0 0 0
0 0 0 0 0 0 0 0 0 0 0 0 0 0 0 0 0 0 0 0 0 0 0 0 0 0 0 0 0 0 0 0 0 0 0 0 0 0
0 0 0 0 0 0 0 0 0 0 0 0 0 0 0 0 0 0 0 0 0 0 0 0 0 0 0 0 0 0 0 0 0 0 0 0 0 0
0 0 0 0 0 0 0 0 0 0 0 0 0 0 0 0 0 0 0 0 0 0 0 0 0 0 0 0 0 0 0 0 0 0 0 0 0 0
-1 0 0 0 0 0 0 0 0 0 0 0 0 0 0 0 0 0 0 0 0 0 0 0 0 0 0 0 0 0 0 0 0 0 0 0 0 0
0 0 0 0 0 0 0 0 0 0 0 0 0 0 0 0 0 0 0 0 0 0 0 0 0 0 0 0 0 0 0 0 0 0 0 0 0 0
Wind_Speed
5 5 4 3 3 4 4 4 6 5 7 4 4 3 3 3 3 3 3 4 4 5 5 5 4 5 8 10 13 15 17 20 20 23 26 26 25 23
3 5 5 3 4 4 5 3 2 3 2 2 2 3 3 2 2 3 0 3 5 4 6 5 4 5 8 10 13 16 18 20 22 25 27 27 23 19
5 6 8 7 6 7 6 5 4 3 3 0 2 1 2 3 1 2 1 2 2 3 5 6 2 3 7 11 14 16 18 20 23 26 29 27 17 14
7 6 6 2 3 4 4 6 5 3 4 4 2 2 2 2 2 2 2 2 2 4 5 7 3 2 6 8 12 16 18 21 22 26 30 22 14 6
7 8 8 7 6 4 4 4 3 3 3 4 3 1 1 1 2 1 1 3 2 5 6 4 3 4 6 9 11 15 17 20 22 24 26 19 11 3
9 10 10 12 9 7 6 6 5 5 4 3 2 2 2 1 2 0 2 1 2 2 4 5 5 6 5 9 11 14 16 19 21 24 25 23 14 22
5 4 3 6 8 9 6 6 6 3 3 3 3 2 2 2 3 2 1 2 2 1 2 2 1 1 2 6 7 12 14 16 19 21 21 21 12 15
7 5 5 7 8 10 8 9 7 6 4 3 3 4 5 4 4 3 2 0 2 1 1 2 1 1 1 2 8 12 12 13 15 17 20 21 15 10
7 6 5 4 6 5 10 9 7 7 5 5 4 4 4 6 5 3 3 3 2 1 1 2 1 1 1 3 8 9 10 11 11 13 16 19 19 13
6 8 8 7 7 9 7 7 4 4 4 2 3 4 3 5 5 4 4 2 0 3 2 2 1 1 2 2 7 9 8 9 9 10 11 15 16 20
5 5 6 7 12 15 8 7 5 2 2 6 6 6 6 6 6 4 2 2 1 2 1 1 1 2 3 3 3 7 7 6 6 8 10 12 12 13
4 5 10 8 14 14 8 7 6 5 6 3 3 5 5 2 7 4 4 2 2 1 1 2 1 2 4 1 3 3 3 7 10 7 8 10 10 5
4 4 4 13 15 15 10 6 7 7 8 5 4 3 3 3 3 3 3 2 2 2 2 2 2 1 2 3 3 2 3 3 3 5 8 8 9 7
7 5 5 14 14 15 12 13 12 9 4 4 3 3 2 2 2 2 3 3 3 2 2 3 2 3 3 2 2 3 2 2 2 2 3 5 8 7
4 8 12 13 14 12 13 13 12 5 5 3 3 2 2 2 5 3 2 3 3 2 2 2 1 3 3 3 2 2 2 3 2 1 1 1 1 2
8 7 9 9 10 8 8 9 5 5 5 4 2 2 4 3 2 2 2 2 1 1 2 1 2 4 2 4 2 2 2 1 2 0 0 1 1 1
6 3 3 4 6 5 4 4 4 4 5 3 3 4 4 3 3 2 2 2 2 1 0 0 2 4 3 4 2 3 2 1 2 1 1 2 2 3
5 6 7 7 8 8 7 6 5 8 5 5 4 5 4 4 4 3 2 2 2 2 2 2 1 3 3 3 9 2 1 2 1 1 1 1 3 3
8 9 9 9 8 7 7 7 7 6 5 5 5 5 4 3 7 5 4 3 3 2 2 2 2 3 2 1 3 9 3 1 1 1 2 2 2 3
8 8 9 8 8 7 7 6 5 5 6 6 5 5 5 4 3 4 6 5 4 2 1 2 3 3 4 4 3 2 5 3 2 2 1 1 4 8
8 8 7 8 8 7 7 7 7 7 6 6 5 5 5 4 3 3 4 9 6 3 2 3 4 8 2 1 2 2 3 4 5 4 2 1 1 2
7 6 6 7 7 8 7 6 6 7 6 5 5 6 6 5 4 5 5 5 5 5 4 2 0 3 3 3 3 2 2 3 2 7 9 7 4 1
5 6 6 7 8 7 7 7 7 7 7 7 6 6 7 6 6 6 5 4 3 3 3 2 2 2 4 5 5 3 3 2 1 2 3 9 14 15
Wind_Direction
200 203 197 192 192 207 187 166 190 185 213 170 185 171 161 138 154 129 65 359 349 333 339 342 350 353 1 349 346 339 337 333 324 319 317 314 306 290
212 211 228 226 202 177 194 163 211 155 202 166 201 143 157 124 106 76 22 360 330 333 338 314 331 360 352 350 342 342 338 332 328 325 322 312 300 286
213 221 228 211 205 196 187 152 188 174 151 337 87 117 142 153 145 8 12 264 291 318 354 307 266 -0 351 347 346 345 334 335 332 331 330 323 297 280
204 214 232 187 200 178 179 170 175 142 126 147 154 150 147 175 169 202 254 272 299 309 322 335 133 4 351 344 349 343 343 340 340 340 336 336 304 265
212 207 207 189 181 182 173 159 155 130 126 141 152 114 112 129 188 351 292 319 285 274 283 294 303 328 346 352 350 345 344 342 347 348 346 355 346 197
226 220 205 187 188 164 171 171 158 151 129 121 118 135 138 96 85 271 314 2 305 282 272 274 292 299 338 352 356 347 345 348 352 354 360 1 32 98
176 189 160 131 153 169 170 169 154 140 118 137 147 122 154 141 176 172 232 300 293 280 317 290 306 352 356 355 343 346 348 354 356 356 3 15 28 75
179 138 121 130 153 158 141 144 157 151 157 136 161 185 185 173 160 162 164 237 319 359 52 296 61 272 291 355 343 341 349 357 1 1 5 18 38 84
143 128 108 95 106 111 115 120 124 154 159 164 168 194 164 169 148 147 188 175 219 244 120 282 16 291 359 328 346 348 351 355 1 13 17 21 40 54
149 145 148 154 157 140 135 102 116 76 84 109 166 166 150 150 139 165 165 171 285 253 178 237 346 265 346 342 340 351 357 353 1 33 34 33 38 54
141 146 156 152 170 154 140 135 142 114 130 148 131 141 151 154 146 121 161 135 246 266 204 146 357 351 3 328 311 350 6 3 16 44 51 51 46 57
152 163 175 170 175 179 140 153 159 178 178 137 89 74 70 87 183 163 154 165 146 274 199 170 26 41 349 357 318 330 354 11 32 50 48 59 60 54
169 182 194 182 180 178 157 167 186 165 180 142 131 118 89 91 70 104 117 148 151 209 179 122 123 74 64 309 312 335 345 352 1 15 17 52 78 97
181 180 192 185 178 177 175 186 177 153 130 133 146 161 159 157 147 116 81 53 33 56 20 118 133 131 118 322 275 336 320 310 64 28 348 9 41 76
178 182 180 182 177 179 178 185 166 147 148 151 171 170 172 142 122 114 102 101 66 30 54 53 135 119 118 210 242 283 335 310 359 83 2 6 347 5
187 190 181 178 179 174 177 192 152 163 165 170 152 122 122 141 159 135 138 151 102 346 45 73 161 162 169 237 174 272 244 209 324 122 176 302 256 280
143 139 167 174 180 175 174 170 159 170 165 159 153 156 168 163 183 165 121 140 174 134 271 201 193 206 211 167 207 227 231 252 228 197 146 307 274 233
161 184 191 195 196 191 187 184 179 193 182 169 174 167 163 163 156 152 139 175 169 193 194 174 59 32 347 276 209 201 231 187 256 170 101 117 304 283
199 193 198 197 195 192 186 188 193 194 165 181 181 176 149 162 162 171 176 172 204 211 228 144 101 115 85 248 279 194 162 220 129 78 188 197 214 252
201 200 201 195 193 191 189 188 178 166 185 182 181 169 167 153 147 172 177 184 191 189 175 181 202 173 156 201 206 258 194 157 155 169 214 263 252 277
204 208 201 189 187 188 186 184 190 189 185 175 183 167 166 157 170 159 171 187 181 165 207 225 218 195 162 114 7 318 300 241 190 160 174 137 301 335
222 203 189 184 187 186 184 182 184 183 178 178 177 174 168 173 162 179 179 190 195 188 202 220 76 104 176 180 209 233 303 317 311 234 212 199 163 234
206 198 192 195 193 182 181 183 184 183 178 175 182 178 165 175 175 182 179 182 155 180 181 175 168 158 195 199 198 206 221 242 232 336 293 245 239 250